World > North America > United States > New Jersey
Hourly Weather in Brick, New JerseyBrick, New Jersey Hourly Weather

Brick, NJ Hourly Weather

Hourly Weather Brick, New JerseyHourly Weather in Brick, NJ
Lat: 39.83N, Lon: 74.29W  ICAO: KWRI
Web Search
Brick Weather Warning NWS WEATHER ALERT FOR THE BRICK, NJ AREA - Issued: 0503 AM EDT Tue Sep 28 2021 Brick Weather Warning  

Did you know? You can add this page to Bookmarks by pressing the Ctrl key & d key at the same time. Mac users press command & d.

Feedback

Brick Hourly Weather

36 Hour Weather Scroll   °F Click to change Brick hourly weather to Imperial units.Click to change Brick hourly weather to Metric units. °C
Currently, Partly Cloudy, temperature is 68°F20°C, dew point 60°F16°C, humidity 76%. Wind direction is WSW at 8 mph13 km/h with visibility of 10.00 mi16 km. Barometric pressure is 29.85 in1011 mb.

Sep 28
10:00 AM

Sep 28
11:00 AM

Sep 28
NOON

Sep 28
1:00 PM

Sep 28
2:00 PM

Sep 28
3:00 PM

Sep 28
4:00 PM

Sep 28
5:00 PM

Sep 28
6:00 PM

Sep 28
7:00 PM

Sep 28
8:00 PM

Sep 28
9:00 PM

Sep 28
10:00 PM

Sep 28
11:00 PM

Sep 29
MIDNIGHT

Sep 29
1:00 AM

Sep 29
2:00 AM

Sep 29
3:00 AM

Sep 29
4:00 AM

Sep 29
5:00 AM

Sep 29
6:00 AM

Sep 29
7:00 AM

Sep 29
8:00 AM

Sep 29
9:00 AM

Sep 29
10:00 AM

Sep 29
11:00 AM

Sep 29
NOON

Sep 29
1:00 PM

Sep 29
2:00 PM

Sep 29
3:00 PM

Sep 29
4:00 PM

Sep 29
5:00 PM

Sep 29
6:00 PM

Sep 29
7:00 PM

Sep 29
8:00 PM

Sep 29
9:00 PM
Cloudy Cloudy Cloudy Cloudy Cloudy Cloudy Cloudy Cloudy Cloudy Cloudy Cloudy Cloudy Cloudy Cloudy Cloudy Cloudy Cloudy Cloudy Partly Cloudy Partly Cloudy Partly Cloudy Mostly Clear Mostly Clear Mostly Clear Mostly Clear Mostly Clear Mostly Clear Clear Clear Clear Mostly Clear Mostly Clear Mostly Clear Partly Cloudy Partly Cloudy Partly Cloudy
Cloudy Cloudy Cloudy Cloudy Cloudy Cloudy Cloudy Cloudy Cloudy Cloudy Cloudy Cloudy Cloudy Cloudy Cloudy Cloudy Cloudy Cloudy Partly Cloudy Partly Cloudy Partly Cloudy Mostly Clear Mostly Clear Mostly Clear Mostly Clear Mostly Clear Mostly Clear Clear Clear Clear Mostly Clear Mostly Clear Mostly Clear Partly Cloudy Partly Cloudy Partly Cloudy
68°F20°C 71°F22°C 72°F22°C 73°F23°C 74°F23°C 73°F23°C 73°F23°C 72°F22°C 70°F21°C 67°F19°C 65°F18°C 64°F18°C 64°F18°C 63°F17°C 62°F17°C 60°F16°C 59°F15°C 57°F14°C 56°F13°C 54°F12°C 54°F12°C 55°F13°C 55°F13°C 58°F14°C 61°F16°C 64°F18°C 65°F18°C 66°F19°C 67°F19°C 67°F19°C 68°F20°C 68°F20°C 65°F18°C 63°F17°C 60°F16°C 58°F14°C
- - - - - Rain Rain Rain Rain Rain Rain - - - - - - - - - - - - - - - - - - - - - - - - -
14% 14% 14% 14% 14% 32% 32% 32% 32% 32% 32% 18% 18% 18% 18% 18% 18% 6% 6% 6% 6% 6% 6% 0% 0% 0% 0% 0% 0% 0% 0% 0% 0% 0% 0% 0%
61°F16°C 62°F17°C 62°F17°C 62°F17°C 62°F17°C 62°F17°C 62°F17°C 62°F17°C 62°F17°C 62°F17°C 62°F17°C 61°F16°C 60°F16°C 59°F15°C 57°F14°C 55°F13°C 53°F12°C 51°F11°C 50°F10°C 48°F9°C 48°F9°C 47°F8°C 47°F8°C 46°F8°C 46°F8°C 45°F7°C 44°F7°C 44°F7°C 43°F6°C 43°F6°C 43°F6°C 43°F6°C 44°F7°C 45°F7°C 46°F8°C 46°F8°C
78% 73% 71% 68% 66% 68% 68% 71% 76% 84% 90% 90% 87% 87% 84% 84% 80% 80% 80% 80% 80% 74% 74% 64% 58% 50% 47% 45% 42% 42% 40% 40% 47% 52% 60% 64%
SSW W W W W WNW NW NW NW NW NNW NNW NNW NNW NNW NNW NNW NNW N N N N N N N N N N NNW NNW NNW NNW NW NW NW NW
7 mph 7 mph 7 mph 8 mph 8 mph 8 mph 8 mph 8 mph 8 mph 6 mph 6 mph 6 mph 6 mph 6 mph 6 mph 7 mph 7 mph 7 mph 6 mph 6 mph 6 mph 6 mph 6 mph 6 mph 10 mph 10 mph 10 mph 9 mph 9 mph 9 mph 7 mph 7 mph 7 mph 5 mph 5 mph 5 mph
10 mi16 km 10 mi16 km 10 mi16 km 10 mi16 km 10 mi16 km 10 mi16 km 10 mi16 km 10 mi16 km 10 mi16 km 10 mi16 km 10 mi16 km 10 mi16 km 10 mi16 km 10 mi16 km 10 mi16 km 10 mi16 km 10 mi16 km 10 mi16 km 10 mi16 km 10 mi16 km 10 mi16 km 10 mi16 km 10 mi16 km 10 mi16 km 10 mi16 km 10 mi16 km 10 mi16 km 10 mi16 km 10 mi16 km 10 mi16 km 10 mi16 km 10 mi16 km 10 mi16 km 10 mi16 km 10 mi16 km 10 mi16 km
Hour (EDT)
Weather
Clouds
Temperature
Precip. Type
POP
Dewpoint
Humidity
Wind Direction
Wind Speed
Visibility
POP = Probability of Precipitation. ** Indicates missing data/values from model statistics.

24 Hour Forecast

Today - Partly sunny with a slight chance of showers and thunderstorms this morning, then mostly cloudy with showers and thunderstorms likely this afternoon. Some thunderstorms May produce gusty winds and small hail this afternoon. Highs around 80. West winds 5 to 10 mph. Chance of rain 70%.
Tonight - Mostly cloudy. Showers and thunderstorms likely in the evening. Some thunderstorms May produce gusty winds and small hail in the evening. Lows in the lower 50s. Northwest winds 5 to 10 mph. Chance of rain 70%.

48 Hour Forecast API Feed


Tue, Sep 28
9:00 am

Tue, Sep 28
10:00 am

Tue, Sep 28
11:00 am

Tue, Sep 28
Noon

Tue, Sep 28
1:00 pm

Tue, Sep 28
2:00 pm

Tue, Sep 28
3:00 pm

Tue, Sep 28
4:00 pm

Tue, Sep 28
5:00 pm

Tue, Sep 28
6:00 pm

Tue, Sep 28
7:00 pm

Tue, Sep 28
8:00 pm

Tue, Sep 28
9:00 pm

Tue, Sep 28
10:00 pm

Tue, Sep 28
11:00 pm

Wed, Sep 29
Midnight

Wed, Sep 29
1:00 am

Wed, Sep 29
2:00 am

Wed, Sep 29
3:00 am

Wed, Sep 29
4:00 am

Wed, Sep 29
5:00 am

Wed, Sep 29
6:00 am

Wed, Sep 29
7:00 am

Wed, Sep 29
8:00 am

Wed, Sep 29
9:00 am

Wed, Sep 29
10:00 am

Wed, Sep 29
11:00 am

Wed, Sep 29
Noon

Wed, Sep 29
1:00 pm

Wed, Sep 29
2:00 pm

Wed, Sep 29
3:00 pm

Wed, Sep 29
4:00 pm

Wed, Sep 29
5:00 pm

Wed, Sep 29
6:00 pm

Wed, Sep 29
7:00 pm

Wed, Sep 29
8:00 pm

Wed, Sep 29
9:00 pm

Wed, Sep 29
10:00 pm

Wed, Sep 29
11:00 pm

Thu, Sep 30
Midnight

Thu, Sep 30
1:00 am

Thu, Sep 30
2:00 am

Thu, Sep 30
3:00 am

Thu, Sep 30
4:00 am

Thu, Sep 30
5:00 am

Thu, Sep 30
6:00 am

Thu, Sep 30
7:00 am

Thu, Sep 30
8:00 am
Thundery Outbreaks PossibleThundery Outbreaks PossibleThundery Outbreaks PossiblePartly CloudyPatchy Rain PossibleThundery Outbreaks PossiblePartly CloudyThundery Outbreaks PossibleLight Rain ShowerThundery Outbreaks PossibleLight Rain ShowerLight Rain ShowerPatchy Rain PossiblePatchy Rain PossiblePatchy Rain PossiblePatchy Rain PossiblePatchy Rain PossibleModerate Rain At TimesPartly CloudyPartly CloudyPartly CloudyPartly CloudyPartly CloudyPartly CloudyPartly CloudySunnySunnySunnySunnySunnySunnyPartly CloudyPartly CloudyPartly CloudyPartly CloudyPartly CloudyPartly CloudyPartly CloudyPartly CloudyPartly CloudyPartly CloudyPartly CloudyPartly CloudyPartly CloudyPartly CloudyPartly CloudyPartly CloudyPartly Cloudy
Thundery outbreaks possible Thundery outbreaks possible Thundery outbreaks possible Partly cloudy Patchy rain possible Thundery outbreaks possible Partly cloudy Thundery outbreaks possible Light rain showers Thundery outbreaks possible Light rain showers Light rain showers Patchy rain possible Patchy rain possible Patchy rain possible Patchy rain possible Patchy rain possible Moderate rain at times Partly cloudy Partly cloudy Partly cloudy Partly cloudy Partly cloudy Partly cloudy Partly cloudy Sunny Sunny Sunny Sunny Sunny Sunny Partly cloudy Partly cloudy Partly cloudy Partly cloudy Partly cloudy Partly cloudy Partly cloudy Partly cloudy Partly cloudy Partly cloudy Partly cloudy Partly cloudy Partly cloudy Partly cloudy Partly cloudy Partly cloudy Partly cloudy
68°F
20°C
71°F
22°C
73°F
23°C
75°F
24°C
78°F
26°C
76°F
25°C
79°F
26°C
79°F
26°C
75°F
24°C
73°F
23°C
70°F
21°C
67°F
20°C
66°F
19°C
65°F
19°C
64°F
18°C
62°F
16°C
60°F
15°C
58°F
15°C
56°F
13°C
54°F
12°C
53°F
12°C
53°F
12°C
53°F
11°C
55°F
13°C
59°F
15°C
62°F
17°C
68°F
20°C
70°F
21°C
72°F
22°C
73°F
23°C
74°F
23°C
72°F
22°C
71°F
22°C
68°F
20°C
64°F
18°C
60°F
15°C
58°F
15°C
58°F
14°C
57°F
14°C
56°F
13°C
55°F
13°C
54°F
12°C
53°F
12°C
52°F
11°C
51°F
11°C
51°F
10°C
51°F
11°C
53°F
12°C
58°F
14°C
58°F
14°C
60°F
16°C
64°F
18°C
64°F
18°C
64°F
18°C
64°F
18°C
63°F
17°C
65°F
18°C
65°F
19°C
65°F
18°C
64°F
18°C
64°F
18°C
63°F
17°C
60°F
16°C
57°F
14°C
55°F
13°C
53°F
12°C
50°F
10°C
48°F
9°C
47°F
9°C
47°F
8°C
46°F
8°C
47°F
8°C
46°F
8°C
45°F
7°C
47°F
8°C
46°F
8°C
45°F
7°C
45°F
7°C
45°F
7°C
44°F
7°C
47°F
8°C
48°F
9°C
47°F
8°C
44°F
7°C
45°F
7°C
45°F
7°C
46°F
8°C
44°F
7°C
44°F
7°C
44°F
7°C
44°F
7°C
44°F
7°C
44°F
6°C
44°F
7°C
44°F
6°C
44°F
7°C
29.88 in
1012 mb
29.88 in
1012 mb
29.85 in
1011 mb
29.85 in
1011 mb
29.83 in
1010 mb
29.83 in
1010 mb
29.83 in
1010 mb
29.8 in
1009 mb
29.8 in
1009 mb
29.8 in
1009 mb
29.83 in
1010 mb
29.83 in
1010 mb
29.85 in
1011 mb
29.85 in
1011 mb
29.85 in
1011 mb
29.88 in
1012 mb
29.88 in
1012 mb
29.88 in
1012 mb
29.88 in
1012 mb
29.88 in
1012 mb
29.91 in
1013 mb
29.94 in
1014 mb
29.94 in
1014 mb
29.97 in
1015 mb
29.97 in
1015 mb
30 in
1016 mb
30 in
1016 mb
30 in
1016 mb
29.97 in
1015 mb
29.97 in
1015 mb
29.97 in
1015 mb
29.97 in
1015 mb
29.97 in
1015 mb
30 in
1016 mb
30 in
1016 mb
30 in
1016 mb
30.03 in
1017 mb
30.03 in
1017 mb
30.03 in
1017 mb
30.03 in
1017 mb
30.03 in
1017 mb
30.06 in
1018 mb
30.06 in
1018 mb
30.06 in
1018 mb
30.06 in
1018 mb
30.09 in
1019 mb
30.09 in
1019 mb
30.12 in
1020 mb
70%64%63%68%61%66%59%58%72%78%84%88%94%93%86%84%83%83%81%82%82%80%80%75%63%53%46%41%39%37%36%37%42%48%54%57%60%63%66%65%67%70%72%73%75%77%76%72%
WSWWWWWSWWWWWNWNWNWNWNWNWNNWNNWNNWNNWNNWNNWNNWNNWNNWNNWNNNNNENNENNNWNWNWNWNWNWNWNWNWNWNWNWNWNWNWNWNNWNNW
10 mph
16 km/h
11 mph
17 km/h
9 mph
14 km/h
9 mph
15 km/h
5 mph
8 km/h
7 mph
12 km/h
9 mph
15 km/h
9 mph
14 km/h
9 mph
14 km/h
9 mph
14 km/h
8 mph
13 km/h
8 mph
13 km/h
7 mph
12 km/h
10 mph
16 km/h
11 mph
18 km/h
10 mph
16 km/h
10 mph
16 km/h
9 mph
15 km/h
10 mph
16 km/h
10 mph
15 km/h
9 mph
14 km/h
9 mph
14 km/h
9 mph
15 km/h
9 mph
15 km/h
11 mph
17 km/h
11 mph
18 km/h
11 mph
17 km/h
10 mph
16 km/h
8 mph
13 km/h
7 mph
11 km/h
8 mph
12 km/h
9 mph
14 km/h
9 mph
15 km/h
8 mph
13 km/h
6 mph
10 km/h
7 mph
11 km/h
7 mph
11 km/h
7 mph
12 km/h
8 mph
13 km/h
8 mph
13 km/h
8 mph
13 km/h
9 mph
14 km/h
9 mph
14 km/h
9 mph
14 km/h
8 mph
13 km/h
9 mph
14 km/h
10 mph
15 km/h
11 mph
17 km/h
0%0%82%0%89%0%0%0%51%0%68%89%76%78%61%82%65%63%0%0%0%0%0%0%0%0%0%0%0%0%0%0%0%0%0%0%0%0%0%0%0%0%0%0%0%0%0%0%
6 mi
9 km
6 mi
9 km
6 mi
9 km
6 mi
10 km
6 mi
10 km
6 mi
9 km
6 mi
10 km
6 mi
9 km
6 mi
10 km
6 mi
9 km
6 mi
10 km
6 mi
10 km
6 mi
9 km
6 mi
9 km
6 mi
9 km
6 mi
10 km
6 mi
10 km
6 mi
10 km
6 mi
10 km
6 mi
10 km
6 mi
10 km
6 mi
10 km
6 mi
10 km
6 mi
10 km
6 mi
10 km
6 mi
10 km
6 mi
10 km
6 mi
10 km
6 mi
10 km
6 mi
10 km
6 mi
10 km
6 mi
10 km
6 mi
10 km
6 mi
10 km
6 mi
10 km
6 mi
10 km
6 mi
10 km
6 mi
10 km
6 mi
10 km
6 mi
10 km
6 mi
10 km
6 mi
10 km
6 mi
10 km
6 mi
10 km
6 mi
10 km
6 mi
10 km
6 mi
10 km
6 mi
10 km

Day/Time
Weather
Condition
Temperature
Dew Point
Pressure
Humidity
Wind Direction
Wind Speed
Prob Precip %
Visibility
Prob Precip % = Probability of Precipitation.